Location: Rogalle
(42.8890°N, 1.1916°E)
Time: 16:31:54
(UTC+00:00)

EXPRESS MD2 - Pass Details

Date: 13 December 2025
Orbit: 257 x 2832 km, 49.8° (Epoch: 16 January)

Event Time Altitude Azimuth Distance (km) Brightness Sun altitude
Exits shadow 03:58:17 -3° 211° (SSW) 6,690 8.6 -35.6°
Enters shadow 05:19:04 -44° 350° (N) 9,431 9.6 -20.9°
Reaches altitude 10° 16:57:46 10° 207° (SSW) 1,100 5.8 -6.7°
Maximum altitude 16:59:53 33° 139° (SE) 567 3.3 -7.1°
Drops below altitude 10° 17:02:42 10° 72° (ENE) 1,484 4.9 -7.5°
